Time,TemperatureF,DewpointF,PressureIn,WindDirection,WindDirectionDegrees,WindSpeedMPH,WindSpeedGustMPH,Humidity,HourlyPrecipIn,Conditions,Clouds,dailyrainin,SoftwareType,DateUTC
2013-02-25 00:04:00,37.9,5.1,30.16,North,9,0.0,0.0,25,0.00,CLR,,0.00,WeatherDisplay:10.37,2013-02-25 08:04:00,
2013-02-25 00:09:00,38.0,5.2,30.16,North,9,0.0,0.0,25,0.00,CLR,,0.00,WeatherDisplay:10.37,2013-02-25 08:09:00,
2013-02-25 00:14:00,38.0,5.2,30.16,North,9,0.0,0.0,25,0.00,CLR,,0.00,WeatherDisplay:10.37,2013-02-25 08:14:00,
2013-02-25 00:19:00,37.7,5.8,30.16,North,9,0.0,0.0,26,0.00,CLR,,0.00,WeatherDisplay:10.37,2013-02-25 08:19:00,
2013-02-25 00:24:00,37.2,5.4,30.16,North,9,0.0,0.0,26,0.00,CLR,,0.00,WeatherDisplay:10.37,2013-02-25 08:24:00,
2013-02-25 00:29:00,35.7,4.9,30.17,SW,230,4.0,4.0,27,0.00,CLR,,0.00,WeatherDisplay:10.37,2013-02-25 08:29:00,
2013-02-25 00:34:00,34.1,4.3,30.18,SW,230,4.6,4.6,28,0.00,CLR,,0.00,WeatherDisplay:10.37,2013-02-25 08:34:00,
2013-02-25 00:39:00,32.7,3.1,30.18,SW,230,2.3,2.3,28,0.00,CLR,,0.00,WeatherDisplay:10.37,2013-02-25 08:39:00,
2013-02-25 00:44:00,31.8,3.1,30.19,SW,230,2.3,2.3,29,0.00,CLR,,0.00,WeatherDisplay:10.37,2013-02-25 08:44:00,
2013-02-25 00:50:00,31.1,3.2,30.18,SW,230,0.0,0.0,30,0.00,CLR,,0.00,WeatherDisplay:10.37,2013-02-25 08:50:00,
2013-02-25 00:55:00,30.7,2.9,30.19,SW,230,0.0,0.0,30,0.00,CLR,,0.00,WeatherDisplay:10.37,2013-02-25 08:55:00,
2013-02-25 01:00:00,30.3,3.2,30.19,SW,230,3.0,3.0,31,0.00,CLR,,0.00,WeatherDisplay:10.37,2013-02-25 09:00:00,
2013-02-25 01:05:00,30.2,3.1,30.19,SW,230,3.5,3.5,31,0.00,CLR,,0.00,WeatherDisplay:10.37,2013-02-25 09:05:00,
2013-02-25 01:10:00,30.3,3.2,30.19,SW,230,3.5,3.5,31,0.00,CLR,,0.00,WeatherDisplay:10.37,2013-02-25 09:10:00,
2013-02-25 01:15:00,30.2,3.8,30.20,SW,230,3.5,3.5,32,0.00,CLR,,0.00,WeatherDisplay:10.37,2013-02-25 09:15:00,
2013-02-25 01:20:00,29.9,3.6,30.19,SW,230,3.5,3.5,32,0.00,CLR,,0.00,WeatherDisplay:10.37,2013-02-25 09:20:00,
2013-02-25 01:26:00,29.3,3.0,30.19,SW,230,3.5,3.5,32,0.00,CLR,,0.00,WeatherDisplay:10.37,2013-02-25 09:26:00,
2013-02-25 01:31:00,28.6,3.1,30.19,SW,230,3.5,3.5,33,0.00,CLR,,0.00,WeatherDisplay:10.37,2013-02-25 09:31:00,
2013-02-25 01:36:00,28.1,2.6,30.20,SW,230,4.6,4.6,33,0.00,CLR,,0.00,WeatherDisplay:10.37,2013-02-25 09:36:00,
2013-02-25 01:41:00,27.8,3.0,30.20,SW,230,3.5,3.5,34,0.00,CLR,,0.00,WeatherDisplay:10.37,2013-02-25 09:41:00,
2013-02-25 01:46:00,27.8,3.0,30.20,SW,230,4.6,4.6,34,0.00,CLR,,0.00,WeatherDisplay:10.37,2013-02-25 09:46:00,
2013-02-25 01:51:00,28.3,3.5,30.20,SW,230,3.5,3.5,34,0.00,CLR,,0.00,WeatherDisplay:10.37,2013-02-25 09:51:00,
2013-02-25 01:56:00,28.5,3.6,30.19,SW,230,0.0,0.0,34,0.00,CLR,,0.00,WeatherDisplay:10.37,2013-02-25 09:56:00,
2013-02-25 02:01:00,28.5,3.6,30.19,SW,230,0.0,0.0,34,0.00,CLR,,0.00,WeatherDisplay:10.37,2013-02-25 10:01:00,
2013-02-25 02:06:00,28.6,3.7,30.19,SW,230,0.0,0.0,34,0.00,CLR,,0.00,WeatherDisplay:10.37,2013-02-25 10:06:00,
2013-02-25 02:11:00,28.7,3.8,30.19,SW,230,0.0,0.0,34,0.00,CLR,,0.00,WeatherDisplay:10.37,2013-02-25 10:11:00,
2013-02-25 02:17:00,28.7,3.8,30.19,SW,230,0.0,0.0,34,0.00,CLR,,0.00,WeatherDisplay:10.37,2013-02-25 10:17:00,
2013-02-25 02:22:00,28.6,3.7,30.19,SW,230,0.0,0.0,34,0.00,CLR,,0.00,WeatherDisplay:10.37,2013-02-25 10:22:00,
2013-02-25 02:27:00,28.5,3.6,30.19,SW,230,0.0,0.0,34,0.00,CLR,,0.00,WeatherDisplay:10.37,2013-02-25 10:27:00,
2013-02-25 02:32:00,28.5,3.6,30.19,SW,230,0.0,0.0,34,0.00,CLR,,0.00,WeatherDisplay:10.37,2013-02-25 10:32:00,
2013-02-25 02:37:00,28.2,4.0,30.19,SW,230,0.0,0.0,35,0.00,CLR,,0.00,WeatherDisplay:10.37,2013-02-25 10:37:00,
2013-02-25 02:42:00,28.1,4.5,30.19,SW,230,0.0,0.0,36,0.00,CLR,,0.00,WeatherDisplay:10.37,2013-02-25 10:42:00,
2013-02-25 02:47:00,28.1,5.1,30.19,SW,230,0.0,0.0,37,0.00,CLR,,0.00,WeatherDisplay:10.37,2013-02-25 10:47:00,
2013-02-25 02:52:00,28.2,5.2,30.19,SW,230,0.0,0.0,37,0.00,CLR,,0.00,WeatherDisplay:10.37,2013-02-25 10:52:00,
2013-02-25 02:57:00,28.1,5.1,30.18,SW,230,0.0,0.0,37,0.00,CLR,,0.00,WeatherDisplay:10.37,2013-02-25 10:57:00,
2013-02-25 03:02:00,28.3,5.3,30.18,SW,230,0.0,0.0,37,0.00,CLR,,0.00,WeatherDisplay:10.37,2013-02-25 11:02:00,
2013-02-25 03:07:00,28.5,5.5,30.17,SW,230,0.0,0.0,37,0.00,CLR,,0.00,WeatherDisplay:10.37,2013-02-25 11:07:00,
2013-02-25 03:12:00,28.8,5.2,30.17,SW,230,0.0,0.0,36,0.00,CLR,,0.00,WeatherDisplay:10.37,2013-02-25 11:12:00,
2013-02-25 03:17:00,29.2,5.5,30.17,SW,230,0.0,0.0,36,0.00,CLR,,0.00,WeatherDisplay:10.37,2013-02-25 11:17:00,
2013-02-25 03:22:00,29.1,5.4,30.18,SW,230,3.5,3.5,36,0.00,CLR,,0.00,WeatherDisplay:10.37,2013-02-25 11:22:00,
2013-02-25 03:27:00,28.3,5.3,30.18,SW,230,3.5,3.5,37,0.00,CLR,,0.00,WeatherDisplay:10.37,2013-02-25 11:27:00,
2013-02-25 03:32:00,27.6,4.7,30.18,SW,230,3.5,3.5,37,0.00,CLR,,0.00,WeatherDisplay:10.37,2013-02-25 11:32:00,
2013-02-25 03:37:00,26.9,4.1,30.19,SW,230,0.0,0.0,37,0.00,CLR,,0.00,WeatherDisplay:10.37,2013-02-25 11:37:00,
2013-02-25 03:42:00,26.2,3.4,30.19,SW,230,2.3,2.3,37,0.00,CLR,,0.00,WeatherDisplay:10.37,2013-02-25 11:42:00,
2013-02-25 03:47:00,25.5,2.8,30.19,SW,230,0.0,0.0,37,0.00,CLR,,0.00,WeatherDisplay:10.37,2013-02-25 11:47:00,
2013-02-25 03:52:00,25.1,2.4,30.19,SW,230,0.0,0.0,37,0.00,CLR,,0.00,WeatherDisplay:10.37,2013-02-25 11:52:00,
2013-02-25 03:57:00,25.1,3.0,30.19,SW,230,1.0,0.0,38,0.00,CLR,,0.00,WeatherDisplay:10.37,2013-02-25 11:57:00,
2013-02-25 04:02:00,25.2,2.5,30.19,SW,230,1.1,0.0,37,0.00,CLR,,0.00,WeatherDisplay:10.37,2013-02-25 12:02:00,
2013-02-25 04:07:00,25.3,2.6,30.19,SW,230,2.3,2.3,37,0.00,CLR,,0.00,WeatherDisplay:10.37,2013-02-25 12:07:00,
2013-02-25 04:12:00,25.4,2.7,30.19,SW,230,0.0,0.0,37,0.00,CLR,,0.00,WeatherDisplay:10.37,2013-02-25 12:12:00,
2013-02-25 04:17:00,25.4,3.3,30.19,SW,230,0.0,0.0,38,0.00,CLR,,0.00,WeatherDisplay:10.37,2013-02-25 12:17:00,
2013-02-25 04:22:00,25.6,3.5,30.19,SW,230,0.0,0.0,38,0.00,CLR,,0.00,WeatherDisplay:10.37,2013-02-25 12:22:00,
2013-02-25 04:27:00,25.7,3.6,30.18,SW,230,0.0,0.0,38,0.00,CLR,,0.00,WeatherDisplay:10.37,2013-02-25 12:27:00,
2013-02-25 04:32:00,26.0,3.8,30.19,SW,230,0.0,0.0,38,0.00,CLR,,0.00,WeatherDisplay:10.37,2013-02-25 12:32:00,
2013-02-25 04:37:00,26.2,4.0,30.19,SW,230,0.0,0.0,38,0.00,CLR,,0.00,WeatherDisplay:10.37,2013-02-25 12:37:00,
2013-02-25 04:42:00,26.1,4.5,30.19,SW,230,0.0,0.0,39,0.00,CLR,,0.00,WeatherDisplay:10.37,2013-02-25 12:42:00,
2013-02-25 04:47:00,25.7,3.0,30.19,SW,230,0.0,0.0,37,0.00,CLR,,0.00,WeatherDisplay:10.37,2013-02-25 12:47:00,
2013-02-25 04:52:00,25.1,3.0,30.20,SW,230,0.0,0.0,38,0.00,CLR,,0.00,WeatherDisplay:10.37,2013-02-25 12:52:00,
2013-02-25 04:58:00,25.2,3.7,30.19,SW,230,0.0,0.0,39,0.00,CLR,,0.00,WeatherDisplay:10.37,2013-02-25 12:58:00,
2013-02-25 05:03:00,25.7,4.1,30.20,SW,230,0.0,0.0,39,0.00,CLR,,0.00,WeatherDisplay:10.37,2013-02-25 13:03:00,
2013-02-25 05:08:00,26.1,4.5,30.20,SW,230,0.0,0.0,39,0.00,CLR,,0.00,WeatherDisplay:10.37,2013-02-25 13:08:00,
2013-02-25 05:15:00,26.3,4.7,30.20,SW,230,2.3,2.3,39,0.00,CLR,,0.00,WeatherDisplay:10.37,2013-02-25 13:15:00,
2013-02-25 05:21:00,26.8,5.1,30.20,SW,230,3.5,3.5,39,0.00,CLR,,0.00,WeatherDisplay:10.37,2013-02-25 13:21:00,
2013-02-25 05:26:00,27.0,4.7,30.20,SW,230,2.3,2.3,38,0.00,CLR,,0.00,WeatherDisplay:10.37,2013-02-25 13:26:00,
2013-02-25 05:31:00,26.3,3.5,30.20,SW,230,0.0,0.0,37,0.00,CLR,,0.00,WeatherDisplay:10.37,2013-02-25 13:31:00,
2013-02-25 05:39:00,24.6,2.6,30.21,SW,230,4.0,4.0,38,0.00,CLR,,0.00,WeatherDisplay:10.37,2013-02-25 13:39:00,
2013-02-25 05:45:00,23.1,2.3,30.21,SW,230,3.5,3.5,40,0.00,CLR,,0.00,WeatherDisplay:10.37,2013-02-25 13:45:00,
2013-02-25 05:50:00,22.5,2.8,30.22,SW,230,3.5,3.5,42,0.00,CLR,,0.00,WeatherDisplay:10.37,2013-02-25 13:50:00,
2013-02-25 05:55:00,22.2,2.6,30.21,SW,230,2.3,0.0,42,0.00,CLR,,0.00,WeatherDisplay:10.37,2013-02-25 13:55:00,
2013-02-25 06:00:00,21.9,2.8,30.22,SW,230,2.3,2.3,43,0.00,CLR,,0.00,WeatherDisplay:10.37,2013-02-25 14:00:00,
2013-02-25 06:06:00,21.9,2.8,30.23,SW,230,3.5,3.5,43,0.00,CLR,,0.00,WeatherDisplay:10.37,2013-02-25 14:06:00,
2013-02-25 06:11:00,22.1,3.0,30.22,SW,230,2.3,2.3,43,0.00,CLR,,0.00,WeatherDisplay:10.37,2013-02-25 14:11:00,
2013-02-25 06:16:00,22.5,3.3,30.22,SW,230,3.5,3.5,43,0.00,CLR,,0.00,WeatherDisplay:10.37,2013-02-25 14:16:00,
2013-02-25 06:21:00,22.9,3.7,30.22,SW,230,3.5,3.5,43,0.00,CLR,,0.00,WeatherDisplay:10.37,2013-02-25 14:21:00,
2013-02-25 06:26:00,23.2,3.5,30.22,SW,230,2.3,2.3,42,0.00,CLR,,0.00,WeatherDisplay:10.37,2013-02-25 14:26:00,
2013-02-25 06:31:00,23.5,3.7,30.22,SW,230,2.3,2.4,42,0.00,CLR,,0.00,WeatherDisplay:10.37,2013-02-25 14:31:00,
2013-02-25 06:36:00,23.9,4.1,30.22,SW,230,3.5,3.5,42,0.00,CLR,,0.00,WeatherDisplay:10.37,2013-02-25 14:36:00,
2013-02-25 06:41:00,24.3,4.5,30.22,SW,230,2.3,2.3,42,0.00,CLR,,0.00,WeatherDisplay:10.37,2013-02-25 14:41:00,
2013-02-25 06:46:00,24.5,4.6,30.21,SW,230,2.3,2.3,42,0.00,CLR,,0.00,WeatherDisplay:10.37,2013-02-25 14:46:00,
2013-02-25 06:51:00,24.6,4.7,30.21,SW,230,2.3,2.3,42,0.00,CLR,,0.00,WeatherDisplay:10.37,2013-02-25 14:51:00,
2013-02-25 06:56:00,24.7,4.8,30.22,SW,230,2.3,2.3,42,0.00,CLR,,0.00,WeatherDisplay:10.37,2013-02-25 14:56:00,
2013-02-25 07:01:00,24.7,4.3,30.22,SW,230,0.0,0.0,41,0.00,CLR,,0.00,WeatherDisplay:10.37,2013-02-25 15:01:00,
2013-02-25 07:06:00,24.8,4.9,30.22,SW,230,1.1,0.0,42,0.00,CLR,,0.00,WeatherDisplay:10.37,2013-02-25 15:06:00,
2013-02-25 07:11:00,25.5,5.6,30.23,SW,230,1.1,1.3,42,0.00,CLR,,0.00,WeatherDisplay:10.37,2013-02-25 15:11:00,
2013-02-25 07:16:00,26.3,5.8,30.23,SW,230,2.3,2.3,41,0.00,CLR,,0.00,WeatherDisplay:10.37,2013-02-25 15:16:00,
2013-02-25 07:21:00,27.4,6.2,30.22,SW,230,2.3,2.3,40,0.00,CLR,,0.00,WeatherDisplay:10.37,2013-02-25 15:21:00,
2013-02-25 07:26:00,28.4,6.6,30.22,SW,230,1.1,0.0,39,0.00,CLR,,0.00,WeatherDisplay:10.37,2013-02-25 15:26:00,
2013-02-25 07:31:00,29.3,6.2,30.21,SW,230,1.1,1.1,37,0.00,CLR,,0.00,WeatherDisplay:10.37,2013-02-25 15:31:00,
2013-02-25 07:36:00,30.1,6.9,30.21,SW,230,0.0,0.0,37,0.00,CLR,,0.00,WeatherDisplay:10.37,2013-02-25 15:36:00,
2013-02-25 07:41:00,32.3,8.9,30.21,SW,230,0.0,0.0,37,0.00,CLR,,0.00,WeatherDisplay:10.37,2013-02-25 15:41:00,
2013-02-25 07:46:00,34.4,9.5,30.21,SW,230,2.3,2.3,35,0.00,CLR,,0.00,WeatherDisplay:10.37,2013-02-25 15:46:00,
2013-02-25 07:51:00,35.5,9.9,30.20,SW,230,0.0,0.0,34,0.00,CLR,,0.00,WeatherDisplay:10.37,2013-02-25 15:51:00,
2013-02-25 07:56:00,36.6,10.2,30.20,SW,230,0.0,0.5,33,0.00,CLR,,0.00,WeatherDisplay:10.37,2013-02-25 15:56:00,
2013-02-25 08:01:00,37.1,9.9,30.20,SW,230,0.0,0.0,32,0.00,CLR,,0.00,WeatherDisplay:10.37,2013-02-25 16:01:00,
2013-02-25 08:06:00,36.8,8.9,30.20,SW,230,2.3,2.3,31,0.00,CLR,,0.00,WeatherDisplay:10.37,2013-02-25 16:06:00,
2013-02-25 08:11:00,37.1,9.2,30.20,East,89,3.5,3.5,31,0.00,CLR,,0.00,WeatherDisplay:10.37,2013-02-25 16:11:00,
2013-02-25 08:16:00,37.3,8.7,30.20,East,90,3.5,3.5,30,0.00,CLR,,0.00,WeatherDisplay:10.37,2013-02-25 16:16:00,
2013-02-25 08:21:00,37.4,8.7,30.20,East,92,3.5,3.6,30,0.00,CLR,,0.00,WeatherDisplay:10.37,2013-02-25 16:21:00,
2013-02-25 08:26:00,37.5,8.8,30.20,East,92,3.5,3.5,30,0.00,CLR,,0.00,WeatherDisplay:10.37,2013-02-25 16:26:00,
2013-02-25 08:32:00,37.8,9.1,30.20,East,95,3.5,3.5,30,0.00,CLR,,0.00,WeatherDisplay:10.37,2013-02-25 16:32:00,
2013-02-25 08:37:00,38.2,9.4,30.21,East,95,3.5,3.5,30,0.00,CLR,,0.00,WeatherDisplay:10.37,2013-02-25 16:37:00,
2013-02-25 08:42:00,38.4,9.6,30.20,East,95,3.5,3.5,30,0.00,CLR,,0.00,WeatherDisplay:10.37,2013-02-25 16:42:00,
2013-02-25 08:47:00,38.6,9.0,30.19,East,96,4.6,4.6,29,0.00,CLR,,0.00,WeatherDisplay:10.37,2013-02-25 16:47:00,
2013-02-25 08:52:00,38.7,9.1,30.19,ESE,116,6.0,6.0,29,0.00,CLR,,0.00,WeatherDisplay:10.37,2013-02-25 16:52:00,
2013-02-25 08:57:00,39.2,9.6,30.19,ESE,117,5.0,5.0,29,0.00,CLR,,0.00,WeatherDisplay:10.37,2013-02-25 16:57:00,
2013-02-25 09:02:00,39.3,9.6,30.19,ESE,117,4.6,4.6,29,0.00,CLR,,0.00,WeatherDisplay:10.37,2013-02-25 17:02:00,
2013-02-25 09:07:00,39.7,10.0,30.19,ESE,117,3.5,3.5,29,0.00,CLR,,0.00,WeatherDisplay:10.37,2013-02-25 17:07:00,
2013-02-25 09:12:00,40.2,10.4,30.18,ESE,117,4.6,4.6,29,0.00,CLR,,0.00,WeatherDisplay:10.37,2013-02-25 17:12:00,
2013-02-25 09:17:00,40.8,10.2,30.18,ESE,117,3.5,3.5,28,0.00,CLR,,0.00,WeatherDisplay:10.37,2013-02-25 17:17:00,
2013-02-25 09:22:00,41.6,10.9,30.18,ESE,117,4.6,4.6,28,0.00,CLR,,0.00,WeatherDisplay:10.37,2013-02-25 17:22:00,
2013-02-25 09:27:00,42.4,10.7,30.17,ESE,117,3.5,3.5,27,0.00,CLR,,0.00,WeatherDisplay:10.37,2013-02-25 17:27:00,
2013-02-25 09:32:00,43.4,10.7,30.17,ESE,117,3.5,3.5,26,0.00,CLR,,0.00,WeatherDisplay:10.37,2013-02-25 17:32:00,
2013-02-25 09:37:00,43.7,11.0,30.17,ESE,117,1.1,0.0,26,0.00,CLR,,0.00,WeatherDisplay:10.37,2013-02-25 17:37:00,
2013-02-25 09:42:00,43.9,11.2,30.16,ESE,117,1.1,0.0,26,0.00,CLR,,0.00,WeatherDisplay:10.37,2013-02-25 17:42:00,
2013-02-25 09:47:00,45.0,11.2,30.16,ESE,117,0.0,0.0,25,0.00,CLR,,0.00,WeatherDisplay:10.37,2013-02-25 17:47:00,
2013-02-25 09:52:00,45.8,11.9,30.15,ESE,117,0.0,0.0,25,0.00,CLR,,0.00,WeatherDisplay:10.37,2013-02-25 17:52:00,
2013-02-25 09:57:00,46.5,12.5,30.15,East,91,0.0,0.0,25,0.00,CLR,,0.00,WeatherDisplay:10.37,2013-02-25 17:57:00,
2013-02-25 10:02:00,47.2,12.2,30.15,ESE,105,4.6,4.6,24,0.00,CLR,,0.00,WeatherDisplay:10.37,2013-02-25 18:02:00,
2013-02-25 10:07:00,47.2,12.2,30.15,ESE,106,5.8,5.8,24,0.00,CLR,,0.00,WeatherDisplay:10.37,2013-02-25 18:07:00,
2013-02-25 10:12:00,47.3,12.3,30.15,ESE,106,4.6,4.6,24,0.00,CLR,,0.00,WeatherDisplay:10.37,2013-02-25 18:12:00,
2013-02-25 10:17:00,48.1,12.0,30.15,ESE,106,2.3,2.3,23,0.00,CLR,,0.00,WeatherDisplay:10.37,2013-02-25 18:17:00,
2013-02-25 10:22:00,48.8,12.6,30.14,ESE,107,4.6,4.6,23,0.00,CLR,,0.00,WeatherDisplay:10.37,2013-02-25 18:22:00,
2013-02-25 10:27:00,49.2,11.9,30.14,ESE,107,1.1,1.1,22,0.00,CLR,,0.00,WeatherDisplay:10.37,2013-02-25 18:27:00,
2013-02-25 10:32:00,49.5,12.2,30.14,ESE,118,5.0,5.0,22,0.00,CLR,,0.00,WeatherDisplay:10.37,2013-02-25 18:32:00,
2013-02-25 10:37:00,50.0,11.5,30.14,East,99,4.6,4.6,21,0.00,CLR,,0.00,WeatherDisplay:10.37,2013-02-25 18:37:00,
2013-02-25 10:42:00,50.0,11.5,30.14,ESE,111,4.0,4.0,21,0.00,CLR,,0.00,WeatherDisplay:10.37,2013-02-25 18:42:00,
2013-02-25 10:47:00,50.5,12.0,30.13,SE,129,5.0,5.0,21,0.00,CLR,,0.00,WeatherDisplay:10.37,2013-02-25 18:47:00,
2013-02-25 10:52:00,51.0,11.3,30.13,ENE,78,2.3,2.3,20,0.00,CLR,,0.00,WeatherDisplay:10.37,2013-02-25 18:52:00,
2013-02-25 10:57:00,51.6,11.8,30.12,East,79,5.0,5.0,20,0.00,CLR,,0.00,WeatherDisplay:10.37,2013-02-25 18:57:00,
2013-02-25 11:02:00,52.1,13.3,30.13,ESE,112,4.6,4.6,21,0.00,CLR,,0.00,WeatherDisplay:10.37,2013-02-25 19:02:00,
2013-02-25 11:07:00,52.2,12.3,30.13,ESE,111,4.6,4.6,20,0.00,CLR,,0.00,WeatherDisplay:10.37,2013-02-25 19:07:00,
2013-02-25 11:12:00,52.1,11.0,30.13,ESE,114,3.5,3.5,19,0.00,CLR,,0.00,WeatherDisplay:10.37,2013-02-25 19:12:00,
2013-02-25 11:17:00,52.5,11.4,30.13,East,84,0.0,0.0,19,0.00,CLR,,0.00,WeatherDisplay:10.37,2013-02-25 19:17:00,
2013-02-25 11:22:00,53.0,11.8,30.13,ENE,76,2.3,2.3,19,0.00,CLR,,0.00,WeatherDisplay:10.37,2013-02-25 19:22:00,
2013-02-25 11:27:00,53.4,12.1,30.12,East,101,5.0,5.0,19,0.00,CLR,,0.00,WeatherDisplay:10.37,2013-02-25 19:27:00,
2013-02-25 11:32:00,53.7,12.4,30.12,ESE,110,3.5,3.5,19,0.00,CLR,,0.00,WeatherDisplay:10.37,2013-02-25 19:32:00,
2013-02-25 11:37:00,53.9,11.3,30.11,ESE,109,0.0,0.0,18,0.00,CLR,,0.00,WeatherDisplay:10.37,2013-02-25 19:37:00,
2013-02-25 11:43:00,53.8,11.2,30.10,ESE,116,5.8,5.8,18,0.00,CLR,,0.00,WeatherDisplay:10.37,2013-02-25 19:43:00,
2013-02-25 11:48:00,54.1,11.5,30.10,ESE,111,3.5,3.5,18,0.00,CLR,,0.00,WeatherDisplay:10.37,2013-02-25 19:48:00,
2013-02-25 11:53:00,55.0,12.2,30.10,SSE,160,5.8,5.8,18,0.00,CLR,,0.00,WeatherDisplay:10.37,2013-02-25 19:53:00,
2013-02-25 11:58:00,55.3,12.4,30.09,SSE,153,6.9,6.9,18,0.00,CLR,,0.00,WeatherDisplay:10.37,2013-02-25 19:58:00,
2013-02-25 12:03:00,55.3,12.4,30.11,SE,136,3.5,3.5,18,0.00,CLR,,0.00,WeatherDisplay:10.37,2013-02-25 20:03:00,
2013-02-25 12:08:00,55.7,12.8,30.10,SE,131,8.1,8.1,18,0.00,CLR,,0.00,WeatherDisplay:10.37,2013-02-25 20:08:00,
2013-02-25 12:13:00,55.8,12.9,30.10,East,92,1.1,1.1,18,0.00,CLR,,0.00,WeatherDisplay:10.37,2013-02-25 20:13:00,
2013-02-25 12:18:00,56.3,13.3,30.10,East,98,1.0,0.0,18,0.00,CLR,,0.00,WeatherDisplay:10.37,2013-02-25 20:18:00,
2013-02-25 12:23:00,56.2,13.2,30.09,SE,144,5.8,5.8,18,0.00,CLR,,0.00,WeatherDisplay:10.37,2013-02-25 20:23:00,
2013-02-25 12:28:00,56.6,13.5,30.09,ENE,72,0.0,0.0,18,0.00,CLR,,0.00,WeatherDisplay:10.37,2013-02-25 20:28:00,
2013-02-25 12:33:00,57.2,12.7,30.08,ENE,72,0.0,0.0,17,0.00,CLR,,0.00,WeatherDisplay:10.37,2013-02-25 20:33:00,
2013-02-25 12:38:00,57.7,13.1,30.07,East,94,0.0,0.0,17,0.00,CLR,,0.00,WeatherDisplay:10.37,2013-02-25 20:38:00,
2013-02-25 12:43:00,58.0,13.4,30.07,East,94,4.6,4.6,17,0.00,CLR,,0.00,WeatherDisplay:10.37,2013-02-25 20:43:00,
2013-02-25 12:48:00,57.9,13.3,30.07,NE,39,2.3,2.3,17,0.00,CLR,,0.00,WeatherDisplay:10.37,2013-02-25 20:48:00,
2013-02-25 12:53:00,58.6,13.9,30.07,WNW,284,3.5,3.5,17,0.00,CLR,,0.00,WeatherDisplay:10.37,2013-02-25 20:53:00,
2013-02-25 12:58:00,58.7,13.9,30.07,SSW,207,3.0,3.0,17,0.00,CLR,,0.00,WeatherDisplay:10.37,2013-02-25 20:58:00,
2013-02-25 13:03:00,58.4,13.7,30.07,SSW,207,0.0,0.0,17,0.00,CLR,,0.00,WeatherDisplay:10.37,2013-02-25 21:03:00,
2013-02-25 13:08:00,59.0,14.2,30.06,SSW,206,0.0,0.0,17,0.00,CLR,,0.00,WeatherDisplay:10.37,2013-02-25 21:08:00,
2013-02-25 13:13:00,59.6,14.7,30.06,SSW,207,0.0,0.0,17,0.00,CLR,,0.00,WeatherDisplay:10.37,2013-02-25 21:13:00,
2013-02-25 13:18:00,59.9,14.9,30.05,SSW,207,0.0,0.0,17,0.00,CLR,,0.00,WeatherDisplay:10.37,2013-02-25 21:18:00,
2013-02-25 13:23:00,60.8,15.6,30.05,SSE,156,4.6,4.6,17,0.00,CLR,,0.00,WeatherDisplay:10.37,2013-02-25 21:23:00,
2013-02-25 13:28:00,60.1,15.1,30.05,SSE,157,2.3,0.0,17,0.00,CLR,,0.00,WeatherDisplay:10.37,2013-02-25 21:28:00,
2013-02-25 13:33:00,60.5,15.4,30.05,SSE,149,5.8,5.8,17,0.00,CLR,,0.00,WeatherDisplay:10.37,2013-02-25 21:33:00,
2013-02-25 13:38:00,60.6,15.5,30.04,NE,34,0.0,0.0,17,0.00,CLR,,0.00,WeatherDisplay:10.37,2013-02-25 21:38:00,
2013-02-25 13:43:00,60.9,15.7,30.03,NNE,29,0.0,0.0,17,0.00,CLR,,0.00,WeatherDisplay:10.37,2013-02-25 21:43:00,
2013-02-25 13:48:00,61.3,16.1,30.03,ENE,60,3.5,3.5,17,0.00,CLR,,0.00,WeatherDisplay:10.37,2013-02-25 21:48:00,
2013-02-25 13:53:00,61.8,15.1,30.03,SSW,207,3.5,3.5,16,0.00,CLR,,0.00,WeatherDisplay:10.37,2013-02-25 21:53:00,
2013-02-25 13:58:00,62.4,15.6,30.03,SSW,207,3.5,3.5,16,0.00,CLR,,0.00,WeatherDisplay:10.37,2013-02-25 21:58:00,
2013-02-25 14:03:00,62.8,15.9,30.03,SSW,207,0.0,0.0,16,0.00,CLR,,0.00,WeatherDisplay:10.37,2013-02-25 22:03:00,
2013-02-25 14:08:00,62.9,16.0,30.02,West,262,10.4,10.4,16,0.00,CLR,,0.00,WeatherDisplay:10.37,2013-02-25 22:08:00,
2013-02-25 14:13:00,62.9,17.4,30.02,SSW,213,5.8,5.8,17,0.00,CLR,,0.00,WeatherDisplay:10.37,2013-02-25 22:13:00,
2013-02-25 14:18:00,62.9,17.4,30.02,SSW,213,1.1,0.0,17,0.00,CLR,,0.00,WeatherDisplay:10.37,2013-02-25 22:18:00,
2013-02-25 14:23:00,63.4,17.8,30.01,SSW,213,5.8,0.0,17,0.00,CLR,,0.00,WeatherDisplay:10.37,2013-02-25 22:23:00,
2013-02-25 14:28:00,63.8,18.1,30.01,SSW,213,4.6,4.6,17,0.00,CLR,,0.00,WeatherDisplay:10.37,2013-02-25 22:28:00,
2013-02-25 14:33:00,63.4,17.8,30.00,WSW,241,10.4,10.4,17,0.00,CLR,,0.00,WeatherDisplay:10.37,2013-02-25 22:33:00,
2013-02-25 14:38:00,63.4,17.8,30.01,SW,227,6.0,6.0,17,0.00,CLR,,0.00,WeatherDisplay:10.37,2013-02-25 22:38:00,
2013-02-25 14:43:00,63.1,17.5,30.00,West,264,9.2,9.2,17,0.00,CLR,,0.00,WeatherDisplay:10.37,2013-02-25 22:43:00,
2013-02-25 14:48:00,63.5,19.2,30.00,SW,223,3.5,3.5,18,0.00,CLR,,0.00,WeatherDisplay:10.37,2013-02-25 22:48:00,
2013-02-25 14:53:00,64.2,18.4,29.99,SW,217,5.8,5.8,17,0.00,CLR,,0.00,WeatherDisplay:10.37,2013-02-25 22:53:00,
2013-02-25 14:58:00,64.2,18.4,29.99,SW,217,8.1,8.1,17,0.00,CLR,,0.00,WeatherDisplay:10.37,2013-02-25 22:58:00,
2013-02-25 15:03:00,63.7,18.0,30.00,SW,217,5.8,5.8,17,0.00,CLR,,0.00,WeatherDisplay:10.37,2013-02-25 23:03:00,
2013-02-25 15:08:00,63.5,17.8,30.00,SW,217,6.9,6.9,17,0.00,CLR,,0.00,WeatherDisplay:10.37,2013-02-25 23:08:00,
2013-02-25 15:13:00,63.7,18.0,30.00,SW,217,3.5,3.5,17,0.00,CLR,,0.00,WeatherDisplay:10.37,2013-02-25 23:13:00,
2013-02-25 15:18:00,64.7,20.2,29.99,SW,217,3.5,3.5,18,0.00,CLR,,0.00,WeatherDisplay:10.37,2013-02-25 23:18:00,
2013-02-25 15:23:00,65.9,21.2,29.99,SW,217,5.0,5.0,18,0.00,CLR,,0.00,WeatherDisplay:10.37,2013-02-25 23:23:00,
2013-02-25 15:28:00,66.5,22.9,29.99,WSW,258,14.0,14.0,19,0.00,CLR,,0.00,WeatherDisplay:10.37,2013-02-25 23:28:00,
2013-02-25 15:33:00,66.2,23.9,29.98,WSW,246,17.3,17.3,20,0.00,CLR,,0.00,WeatherDisplay:10.37,2013-02-25 23:33:00,
2013-02-25 15:38:00,65.5,23.3,29.98,West,279,19.6,19.6,20,0.00,CLR,,0.00,WeatherDisplay:10.37,2013-02-25 23:38:00,
2013-02-25 15:43:00,64.8,23.9,29.98,West,262,17.3,17.3,21,0.00,CLR,,0.00,WeatherDisplay:10.37,2013-02-25 23:43:00,
2013-02-25 15:48:00,64.6,23.7,29.97,West,265,19.6,19.6,21,0.00,CLR,,0.00,WeatherDisplay:10.37,2013-02-25 23:48:00,
2013-02-25 15:53:00,64.6,23.7,29.97,West,265,20.7,20.7,21,0.00,CLR,,0.00,WeatherDisplay:10.37,2013-02-25 23:53:00,
2013-02-25 15:58:00,64.4,23.6,29.97,WNW,282,21.9,21.9,21,0.00,CLR,,0.00,WeatherDisplay:10.37,2013-02-25 23:58:00,
2013-02-25 16:03:00,63.9,23.2,29.97,West,264,21.9,21.9,21,0.00,CLR,,0.00,WeatherDisplay:10.37,2013-02-26 00:03:00,
2013-02-25 16:08:00,63.8,23.1,29.97,West,265,19.6,19.6,21,0.00,CLR,,0.00,WeatherDisplay:10.37,2013-02-26 00:08:00,
2013-02-25 16:13:00,63.6,22.9,29.97,West,270,20.7,20.7,21,0.00,CLR,,0.00,WeatherDisplay:10.37,2013-02-26 00:13:00,
2013-02-25 16:18:00,63.2,22.6,29.97,West,271,24.0,24.0,21,0.00,CLR,,0.00,WeatherDisplay:10.37,2013-02-26 00:18:00,
2013-02-25 16:23:00,62.8,22.2,29.97,WSW,254,19.6,19.6,21,0.00,CLR,,0.00,WeatherDisplay:10.37,2013-02-26 00:23:00,
2013-02-25 16:28:00,62.7,22.2,29.97,WNW,291,16.1,16.1,21,0.00,CLR,,0.00,WeatherDisplay:10.37,2013-02-26 00:28:00,
2013-02-25 16:33:00,62.6,22.1,29.97,West,271,17.3,17.3,21,0.00,CLR,,0.00,WeatherDisplay:10.37,2013-02-26 00:33:00,
2013-02-25 16:38:00,62.0,21.6,29.97,WSW,255,19.6,19.6,21,0.00,CLR,,0.00,WeatherDisplay:10.37,2013-02-26 00:38:00,
2013-02-25 16:43:00,61.6,21.2,29.97,WSW,257,18.4,18.4,21,0.00,CLR,,0.00,WeatherDisplay:10.37,2013-02-26 00:43:00,
2013-02-25 16:48:00,61.4,23.2,29.96,West,259,19.6,19.6,23,0.00,CLR,,0.00,WeatherDisplay:10.37,2013-02-26 00:48:00,
2013-02-25 16:53:00,61.3,22.1,29.97,WSW,256,15.0,15.0,22,0.00,CLR,,0.00,WeatherDisplay:10.37,2013-02-26 00:53:00,
2013-02-25 16:58:00,61.3,22.1,29.97,West,261,11.5,11.5,22,0.00,CLR,,0.00,WeatherDisplay:10.37,2013-02-26 00:58:00,
2013-02-25 17:03:00,61.0,22.9,29.98,WSW,250,12.7,13.0,23,0.00,CLR,,0.00,WeatherDisplay:10.37,2013-02-26 01:03:00,
2013-02-25 17:08:00,60.5,22.5,29.98,WSW,250,16.1,16.1,23,0.00,CLR,,0.00,WeatherDisplay:10.37,2013-02-26 01:08:00,
2013-02-25 17:13:00,60.2,23.2,29.98,West,267,17.3,17.3,24,0.00,CLR,,0.00,WeatherDisplay:10.37,2013-02-26 01:13:00,
2013-02-25 17:18:00,59.8,22.9,29.98,WSW,244,16.1,16.1,24,0.00,CLR,,0.00,WeatherDisplay:10.37,2013-02-26 01:18:00,
2013-02-25 17:23:00,59.4,22.6,29.98,WSW,239,12.7,12.7,24,0.00,CLR,,0.00,WeatherDisplay:10.37,2013-02-26 01:23:00,
2013-02-25 17:28:00,59.0,22.2,29.99,West,273,18.4,18.4,24,0.00,CLR,,0.00,WeatherDisplay:10.37,2013-02-26 01:28:00,
2013-02-25 17:33:00,58.6,20.9,29.99,West,277,12.7,12.8,23,0.00,CLR,,0.00,WeatherDisplay:10.37,2013-02-26 01:33:00,
2013-02-25 17:38:00,58.3,20.6,29.98,West,259,16.1,16.1,23,0.00,CLR,,0.00,WeatherDisplay:10.37,2013-02-26 01:38:00,
2013-02-25 17:44:00,57.6,22.0,29.99,West,260,16.1,16.1,25,0.00,CLR,,0.00,WeatherDisplay:10.37,2013-02-26 01:44:00,
2013-02-25 17:49:00,57.3,21.7,29.99,West,264,13.8,13.8,25,0.00,CLR,,0.00,WeatherDisplay:10.37,2013-02-26 01:49:00,
2013-02-25 17:54:00,57.1,22.5,29.99,West,278,23.0,23.0,26,0.00,CLR,,0.00,WeatherDisplay:10.37,2013-02-26 01:54:00,
2013-02-25 17:59:00,56.8,22.2,29.99,WNW,302,18.4,18.4,26,0.00,CLR,,0.00,WeatherDisplay:10.37,2013-02-26 01:59:00,
2013-02-25 18:04:00,56.6,22.1,29.98,WNW,291,19.6,19.6,26,0.00,CLR,,0.00,WeatherDisplay:10.37,2013-02-26 02:04:00,
2013-02-25 18:09:00,56.3,21.8,29.99,West,281,20.7,20.7,26,0.00,CLR,,0.00,WeatherDisplay:10.37,2013-02-26 02:09:00,
2013-02-25 18:14:00,55.9,22.4,29.99,WNW,292,27.6,27.6,27,0.00,CLR,,0.00,WeatherDisplay:10.37,2013-02-26 02:14:00,
2013-02-25 18:19:00,55.4,21.0,29.99,WNW,296,26.5,26.5,26,0.00,CLR,,0.00,WeatherDisplay:10.37,2013-02-26 02:19:00,
2013-02-25 18:24:00,55.0,21.6,29.99,WNW,289,21.9,21.9,27,0.00,CLR,,0.00,WeatherDisplay:10.37,2013-02-26 02:24:00,
2013-02-25 18:29:00,54.6,22.1,30.00,WNW,290,26.5,26.5,28,0.00,CLR,,0.00,WeatherDisplay:10.37,2013-02-26 02:29:00,
2013-02-25 18:35:00,54.1,21.7,30.01,WNW,282,21.9,21.9,28,0.00,CLR,,0.00,WeatherDisplay:10.37,2013-02-26 02:35:00,
2013-02-25 18:40:00,53.7,22.2,30.01,WNW,298,18.4,18.4,29,0.00,CLR,,0.00,WeatherDisplay:10.37,2013-02-26 02:40:00,
2013-02-25 18:45:00,53.3,21.8,30.01,WNW,286,18.4,18.4,29,0.00,CLR,,0.00,WeatherDisplay:10.37,2013-02-26 02:45:00,
2013-02-25 18:50:00,53.1,21.6,30.01,West,275,16.1,16.1,29,0.00,CLR,,0.00,WeatherDisplay:10.37,2013-02-26 02:50:00,
2013-02-25 18:55:00,53.2,21.7,30.01,WNW,297,19.6,19.6,29,0.00,CLR,,0.00,WeatherDisplay:10.37,2013-02-26 02:55:00,
2013-02-25 19:00:00,52.8,22.2,30.01,WNW,283,13.8,13.8,30,0.00,CLR,,0.00,WeatherDisplay:10.37,2013-02-26 03:00:00,
2013-02-25 19:05:00,52.1,21.6,29.98,WNW,291,13.8,13.8,30,0.00,CLR,,0.00,WeatherDisplay:10.37,2013-02-26 03:05:00,
2013-02-25 19:10:00,51.8,22.1,29.99,WNW,299,17.3,17.3,31,0.00,CLR,,0.00,WeatherDisplay:10.37,2013-02-26 03:10:00,
2013-02-25 19:15:00,51.6,22.7,29.99,West,277,16.1,16.1,32,0.00,CLR,,0.00,WeatherDisplay:10.37,2013-02-26 03:15:00,
2013-02-25 19:20:00,51.4,22.5,29.99,NW,310,16.1,16.1,32,0.00,CLR,,0.00,WeatherDisplay:10.37,2013-02-26 03:20:00,
2013-02-25 19:25:00,51.3,23.1,30.00,NNW,330,16.0,16.0,33,0.00,CLR,,0.00,WeatherDisplay:10.37,2013-02-26 03:25:00,
2013-02-25 19:31:00,51.0,22.1,30.00,NW,310,11.5,11.5,32,0.00,CLR,,0.00,WeatherDisplay:10.37,2013-02-26 03:31:00,
2013-02-25 19:36:00,51.1,23.0,29.99,WNW,297,17.3,17.3,33,0.00,CLR,,0.00,WeatherDisplay:10.37,2013-02-26 03:36:00,
2013-02-25 19:41:00,51.6,22.7,29.99,WNW,294,18.0,18.0,32,0.00,CLR,,0.00,WeatherDisplay:10.37,2013-02-26 03:41:00,
2013-02-25 19:46:00,52.0,23.0,29.99,WNW,292,17.3,17.3,32,0.00,CLR,,0.00,WeatherDisplay:10.37,2013-02-26 03:46:00,
2013-02-25 19:51:00,52.2,22.4,29.99,West,267,13.8,13.8,31,0.00,CLR,,0.00,WeatherDisplay:10.37,2013-02-26 03:51:00,
2013-02-25 19:56:00,52.1,22.3,30.00,WSW,245,11.5,11.5,31,0.00,CLR,,0.00,WeatherDisplay:10.37,2013-02-26 03:56:00,
2013-02-25 20:01:00,51.1,23.0,29.99,West,261,11.0,11.0,33,0.00,CLR,,0.00,WeatherDisplay:10.37,2013-02-26 04:01:00,
2013-02-25 20:06:00,50.9,23.5,30.00,West,267,11.0,11.0,34,0.00,CLR,,0.00,WeatherDisplay:10.37,2013-02-26 04:06:00,
2013-02-25 20:11:00,51.3,23.1,29.99,West,275,12.7,12.7,33,0.00,CLR,,0.00,WeatherDisplay:10.37,2013-02-26 04:11:00,
2013-02-25 20:16:00,51.6,23.4,30.00,WNW,283,12.7,12.7,33,0.00,CLR,,0.00,WeatherDisplay:10.37,2013-02-26 04:16:00,
2013-02-25 20:21:00,51.9,23.7,30.00,WNW,289,13.0,13.0,33,0.00,CLR,,0.00,WeatherDisplay:10.37,2013-02-26 04:21:00,
2013-02-25 20:26:00,51.9,22.9,30.00,NW,309,15.0,15.0,32,0.00,CLR,,0.00,WeatherDisplay:10.37,2013-02-26 04:26:00,
2013-02-25 20:31:00,52.0,23.0,30.00,West,275,17.3,17.3,32,0.00,CLR,,0.00,WeatherDisplay:10.37,2013-02-26 04:31:00,
2013-02-25 20:36:00,52.0,23.0,30.00,WNW,282,18.4,18.4,32,0.00,CLR,,0.00,WeatherDisplay:10.37,2013-02-26 04:36:00,
2013-02-25 20:41:00,51.7,23.5,30.00,WNW,294,15.0,15.0,33,0.00,CLR,,0.00,WeatherDisplay:10.37,2013-02-26 04:41:00,
2013-02-25 20:47:00,51.5,23.3,30.00,West,262,17.3,17.3,33,0.00,CLR,,0.00,WeatherDisplay:10.37,2013-02-26 04:47:00,
2013-02-25 20:52:00,51.0,23.6,30.00,West,267,17.3,17.3,34,0.00,CLR,,0.00,WeatherDisplay:10.37,2013-02-26 04:52:00,
2013-02-25 20:57:00,50.6,23.9,30.00,West,279,19.6,19.6,35,0.00,CLR,,0.00,WeatherDisplay:10.37,2013-02-26 04:57:00,
2013-02-25 21:00:00,50.9,24.2,30.00,WNW,298,17.3,17.3,35,0.00,CLR,,0.00,WeatherDisplay:10.37,2013-02-26 05:00:00,
2013-02-25 21:01:00,50.9,24.2,29.98,West,275,17.3,17.3,35,0.00,CLR,,0.00,WeatherDisplay:10.37,2013-02-26 05:01:00,
2013-02-25 21:06:00,51.2,23.8,29.98,NW,305,16.1,16.1,34,0.00,CLR,,0.00,WeatherDisplay:10.37,2013-02-26 05:06:00,
2013-02-25 21:11:00,51.3,23.8,29.98,WNW,297,17.3,17.3,34,0.00,CLR,,0.00,WeatherDisplay:10.37,2013-02-26 05:11:00,
2013-02-25 21:16:00,51.0,24.3,29.97,WNW,295,20.7,20.7,35,0.00,CLR,,0.00,WeatherDisplay:10.37,2013-02-26 05:16:00,
2013-02-25 21:21:00,51.0,24.3,29.97,NW,311,18.4,18.4,35,0.00,CLR,,0.00,WeatherDisplay:10.37,2013-02-26 05:21:00,
2013-02-25 21:26:00,50.8,24.1,29.97,WNW,296,20.7,20.7,35,0.00,CLR,,0.00,WeatherDisplay:10.37,2013-02-26 05:26:00,
2013-02-25 21:31:00,50.6,23.9,29.97,WNW,300,18.4,18.4,35,0.00,CLR,,0.00,WeatherDisplay:10.37,2013-02-26 05:31:00,
2013-02-25 21:36:00,50.7,24.0,29.97,WNW,287,23.0,23.0,35,0.00,CLR,,0.00,WeatherDisplay:10.37,2013-02-26 05:36:00,
2013-02-25 21:41:00,50.5,23.8,29.97,WNW,303,18.4,18.4,35,0.00,CLR,,0.00,WeatherDisplay:10.37,2013-02-26 05:41:00,
2013-02-25 21:46:00,50.2,23.6,29.98,WNW,302,19.6,19.6,35,0.00,CLR,,0.00,WeatherDisplay:10.37,2013-02-26 05:46:00,
2013-02-25 21:51:00,50.4,23.7,29.98,WNW,302,19.6,19.6,35,0.00,CLR,,0.00,WeatherDisplay:10.37,2013-02-26 05:51:00,
2013-02-25 21:56:00,51.4,22.5,29.98,NW,304,13.8,13.8,32,0.00,CLR,,0.00,WeatherDisplay:10.37,2013-02-26 05:56:00,
2013-02-25 22:01:00,51.3,23.1,29.97,NW,311,11.5,11.5,33,0.00,CLR,,0.00,WeatherDisplay:10.37,2013-02-26 06:01:00,
2013-02-25 22:06:00,50.9,23.5,29.96,WNW,286,14.0,14.0,34,0.00,CLR,,0.00,WeatherDisplay:10.37,2013-02-26 06:06:00,
2013-02-25 22:11:00,50.5,23.1,29.96,WNW,292,12.7,12.7,34,0.00,CLR,,0.00,WeatherDisplay:10.37,2013-02-26 06:11:00,
2013-02-25 22:16:00,50.6,22.5,29.96,WNW,300,15.0,15.0,33,0.00,CLR,,0.00,WeatherDisplay:10.37,2013-02-26 06:16:00,
2013-02-25 22:21:00,50.8,22.7,29.97,WNW,283,11.5,11.5,33,0.00,CLR,,0.00,WeatherDisplay:10.37,2013-02-26 06:21:00,
2013-02-25 22:26:00,50.8,22.7,29.97,WNW,291,11.5,11.5,33,0.00,CLR,,0.00,WeatherDisplay:10.37,2013-02-26 06:26:00,
2013-02-25 22:31:00,50.6,22.5,29.96,WNW,292,13.8,13.8,33,0.00,CLR,,0.00,WeatherDisplay:10.37,2013-02-26 06:31:00,
2013-02-25 22:36:00,50.8,22.0,29.97,WNW,296,13.8,13.8,32,0.00,CLR,,0.00,WeatherDisplay:10.37,2013-02-26 06:36:00,
2013-02-25 22:41:00,51.2,21.6,29.96,WNW,284,17.3,17.3,31,0.00,CLR,,0.00,WeatherDisplay:10.37,2013-02-26 06:41:00,
2013-02-25 22:46:00,50.9,22.1,29.96,West,272,17.3,17.3,32,0.00,CLR,,0.00,WeatherDisplay:10.37,2013-02-26 06:46:00,
2013-02-25 22:51:00,51.3,21.6,29.95,WNW,290,12.7,12.7,31,0.00,CLR,,0.00,WeatherDisplay:10.37,2013-02-26 06:51:00,
2013-02-25 22:56:00,51.5,21.0,29.95,WNW,285,18.4,18.4,30,0.00,CLR,,0.00,WeatherDisplay:10.37,2013-02-26 06:56:00,
2013-02-25 23:01:00,51.0,22.1,29.94,WNW,298,17.3,17.3,32,0.00,CLR,,0.00,WeatherDisplay:10.37,2013-02-26 07:01:00,
2013-02-25 23:06:00,49.7,22.4,29.94,WNW,286,21.9,21.9,34,0.00,CLR,,0.00,WeatherDisplay:10.37,2013-02-26 07:06:00,
2013-02-25 23:11:00,49.9,23.3,29.94,WNW,291,23.0,23.0,35,0.00,CLR,,0.00,WeatherDisplay:10.37,2013-02-26 07:11:00,
2013-02-25 23:16:00,50.3,23.0,29.94,West,277,21.9,21.9,34,0.00,CLR,,0.00,WeatherDisplay:10.37,2013-02-26 07:16:00,
2013-02-25 23:21:00,50.5,23.1,29.93,WNW,283,21.9,21.9,34,0.00,CLR,,0.00,WeatherDisplay:10.37,2013-02-26 07:21:00,
2013-02-25 23:26:00,50.5,22.4,29.93,NW,306,26.5,26.5,33,0.00,CLR,,0.00,WeatherDisplay:10.37,2013-02-26 07:26:00,
2013-02-25 23:31:00,50.5,22.4,29.93,NW,304,21.9,21.9,33,0.00,CLR,,0.00,WeatherDisplay:10.37,2013-02-26 07:31:00,
2013-02-25 23:36:00,50.1,22.8,29.94,WNW,298,25.3,25.3,34,0.00,CLR,,0.00,WeatherDisplay:10.37,2013-02-26 07:36:00,
2013-02-25 23:41:00,49.5,22.3,29.94,WNW,303,21.9,21.9,34,0.00,CLR,,0.00,WeatherDisplay:10.37,2013-02-26 07:41:00,
2013-02-25 23:46:00,49.2,22.0,29.94,NW,304,26.5,26.5,34,0.00,CLR,,0.00,WeatherDisplay:10.37,2013-02-26 07:46:00,
2013-02-25 23:51:00,50.2,22.2,29.94,NW,318,26.5,26.5,33,0.00,CLR,,0.00,WeatherDisplay:10.37,2013-02-26 07:51:00,
2013-02-25 23:56:00,49.8,22.5,29.93,NW,308,26.5,26.5,34,0.00,CLR,,0.00,WeatherDisplay:10.37,2013-02-26 07:56:00,